Weather History for Columbia Airport, CA

Change the Weather History Date:

Wednesday, October 9, 2013

  Actual Average (KMOD) Record (KMOD)
Temperature  
Mean Temperature 50 °F -  
Max Temperature 59 °F 82 °F 96 °F (1991)
Min Temperature 41 °F 54 °F 41 °F (1931)
Degree Days  
Heating Degree Days 15 1  
Month to date heating degree days 6  
Since 1 July heating degree days 9  
Cooling Degree Days 0 4  
Month to date cooling degree days 45  
Year to date cooling degree days 1657  
Moisture  
Dew Point 37 °F    
Average Humidity 61    
Maximum Humidity 87    
Minimum Humidity 48    
Precipitation  
Precipitation 0.00 in 0.02 in 0.21 in (1947)
Month to date precipitation 0.13  
Year to date precipitation 9.16  
Since 1 July precipitation 0.41  
Snow  
Snow 0.00 in - 0.00 in (2002)
Month to date snowfall  
Since 1 July snowfall  
Since 1 September snowfall  
Snow Depth -    
Sea Level Pressure  
Sea Level Pressure 29.66 in    
Wind  
Wind Speed 1 mph (South)    
Max Wind Speed 10 mph    
Max Gust Speed -    
Visibility 10 miles    
Events      
T = Trace of Precipitation, MM = Missing Value Source: NWS Daily Summary

Daily Weather History Graph

Daily Weather History Graph

Search for Another Location

Airport:

Trip Planner

Search our weather history database for the weather conditions in past years. The results will help you decide how hot, cold, wet, or windy it might be!

Date:

Astronomy

Oct. 09, 2013 Rise Set
Actual Time 7:04 AM PDT 6:32 PM PDT
Civil Twilight 6:38 AM PDT 6:58 PM PDT
Nautical Twilight 6:08 AM PDT 7:28 PM PDT
Astronomical Twilight 5:37 AM PDT 7:59 PM PDT
Moon 12:01 PM PDT (10/9) 10:15 PM PDT (10/9)
Length of Visible Light 12h 19m
Length of Day
11h 27m
Waxing Crescent, 26% of the Moon is Illuminated
Oct 9
Waxing Crescent
Oct 11
First Quarter
Oct 18
Full
Oct 26
Last Quarter
Nov 3
New

Hourly Weather History & Observations

Time (PDT) Temp. Dew Point Humidity Pressure Visibility Wind Dir Wind Speed Gust Speed Precip Events Conditions
12:15 AM 48.2 °F 32.0 °F 54% 29.69 in 10.0 mi Calm Calm - N/A   Scattered Clouds
12:35 AM 48.2 °F 32.0 °F 54% 29.68 in 10.0 mi Calm Calm - N/A   Mostly Cloudy
12:55 AM 48.2 °F 32.0 °F 54% 29.68 in 10.0 mi Calm Calm - N/A   Partly Cloudy
1:15 AM 48.2 °F 32.0 °F 54% 29.67 in 10.0 mi Calm Calm - N/A   Clear
1:35 AM 48.2 °F 32.0 °F 54% 29.67 in 10.0 mi Calm Calm - N/A   Clear
1:55 AM 46.4 °F 32.0 °F 57% 29.66 in 10.0 mi Calm Calm - N/A   Clear
2:15 AM 46.4 °F 32.0 °F 57% 29.65 in 10.0 mi Calm Calm - N/A   Clear
2:35 AM 46.4 °F 32.0 °F 57% 29.64 in 10.0 mi Calm Calm - N/A   Scattered Clouds
2:55 AM 46.4 °F 32.0 °F 57% 29.63 in 10.0 mi Calm Calm - N/A   Mostly Cloudy
3:15 AM 46.4 °F 32.0 °F 57% 29.62 in 10.0 mi Calm Calm - N/A   Mostly Cloudy
3:35 AM 46.4 °F 32.0 °F 57% 29.62 in 10.0 mi Calm Calm - N/A   Mostly Cloudy
3:55 AM 46.4 °F 32.0 °F 57% 29.61 in 10.0 mi Calm Calm - N/A   Overcast
4:15 AM 48.2 °F 32.0 °F 54% 29.60 in 10.0 mi Calm Calm - N/A   Overcast
4:35 AM 48.2 °F 32.0 °F 54% 29.60 in 10.0 mi Calm Calm - N/A   Overcast
4:55 AM 48.2 °F 32.0 °F 54% 29.59 in 10.0 mi Calm Calm - N/A   Mostly Cloudy
5:15 AM 48.2 °F 32.0 °F 54% 29.59 in 10.0 mi Calm Calm - N/A   Overcast
5:35 AM 48.2 °F 32.0 °F 54% 29.59 in 10.0 mi Calm Calm - N/A   Overcast
5:55 AM 50.0 °F 32.0 °F 50% 29.59 in 10.0 mi Calm Calm - N/A   Overcast
6:15 AM 50.0 °F 32.0 °F 50% 29.59 in 10.0 mi Calm Calm - N/A   Overcast
6:35 AM 48.2 °F 32.0 °F 54% 29.59 in 10.0 mi Calm Calm - N/A   Overcast
6:55 AM 48.2 °F 33.8 °F 58% 29.60 in 10.0 mi Calm Calm - N/A   Overcast
7:15 AM 48.2 °F 33.8 °F 58% 29.60 in 10.0 mi Calm Calm - N/A   Overcast
7:35 AM 48.2 °F 35.6 °F 62% 29.60 in 10.0 mi Calm Calm - N/A   Overcast
7:55 AM 50.0 °F 35.6 °F 58% 29.61 in 10.0 mi Calm Calm - N/A   Overcast
8:15 AM 50.0 °F 35.6 °F 58% 29.62 in 10.0 mi Calm Calm - N/A   Overcast
8:35 AM 50.0 °F 35.6 °F 58% 29.62 in 10.0 mi Calm Calm - N/A   Overcast
8:55 AM 50.0 °F 37.4 °F 62% 29.62 in 10.0 mi Calm Calm - N/A   Mostly Cloudy
9:15 AM 50.0 °F 39.2 °F 66% 29.62 in 10.0 mi Calm Calm - N/A   Partly Cloudy
9:35 AM 53.6 °F 39.2 °F 58% 29.62 in 10.0 mi Calm Calm - N/A   Scattered Clouds
9:55 AM 55.4 °F 39.2 °F 54% 29.63 in 10.0 mi Calm Calm - N/A   Scattered Clouds
10:15 AM 53.6 °F 39.2 °F 58% 29.64 in 10.0 mi SSW 4.6 mph - N/A   Clear
10:35 AM 50.0 °F 39.2 °F 66% 29.65 in 10.0 mi South 5.8 mph - N/A   Clear
10:55 AM 51.8 °F 39.2 °F 62% 29.65 in 10.0 mi Calm Calm - N/A   Clear
11:15 AM 53.6 °F 41.0 °F 62% 29.65 in 10.0 mi South 4.6 mph - N/A   Clear
11:35 AM 53.6 °F 41.0 °F 62% 29.65 in 10.0 mi SSE 5.8 mph - N/A   Clear
11:55 AM 55.4 °F 41.0 °F 58% 29.66 in 10.0 mi SSE 4.6 mph - N/A   Clear
12:15 PM 55.4 °F 41.0 °F 58% 29.66 in 10.0 mi SSE 8.1 mph - N/A   Clear
12:35 PM 57.2 °F 41.0 °F 55% 29.66 in 10.0 mi South 10.4 mph - N/A   Clear
12:55 PM 57.2 °F 41.0 °F 55% 29.65 in 10.0 mi South 6.9 mph - N/A   Partly Cloudy
1:15 PM 57.2 °F 41.0 °F 55% 29.66 in 10.0 mi South 3.5 mph - N/A   Mostly Cloudy
1:55 PM 59.0 °F 41.0 °F 51% 29.66 in 10.0 mi SW 9.2 mph - N/A   Partly Cloudy
2:15 PM 59.0 °F 39.2 °F 48% 29.66 in 10.0 mi SSW 8.1 mph - N/A   Mostly Cloudy
2:35 PM 57.2 °F 41.0 °F 55% 29.66 in 10.0 mi South 6.9 mph - N/A   Scattered Clouds
2:55 PM 57.2 °F 39.2 °F 51% 29.67 in 10.0 mi SSW 6.9 mph - N/A   Mostly Cloudy
3:15 PM 55.4 °F 39.2 °F 54% 29.67 in 10.0 mi South 4.6 mph - N/A   Overcast
3:35 PM 57.2 °F 39.2 °F 51% 29.68 in 10.0 mi Calm Calm - N/A   Overcast
3:55 PM 55.4 °F 39.2 °F 54% 29.68 in 10.0 mi Calm Calm - N/A   Overcast
4:15 PM 55.4 °F 41.0 °F 58% 29.69 in 10.0 mi Calm Calm - N/A   Overcast
4:55 PM 55.4 °F 41.0 °F 58% 29.69 in 10.0 mi Calm Calm - N/A   Overcast
5:15 PM 55.4 °F 41.0 °F 58% 29.69 in 10.0 mi Calm Calm - N/A   Overcast
5:35 PM 55.4 °F 41.0 °F 58% 29.70 in 10.0 mi Calm Calm - N/A   Mostly Cloudy
5:55 PM 55.4 °F 41.0 °F 58% 29.70 in 10.0 mi Calm Calm - N/A   Partly Cloudy
6:15 PM 55.4 °F 41.0 °F 58% 29.70 in 10.0 mi Calm Calm - N/A   Mostly Cloudy
6:35 PM 53.6 °F 41.0 °F 62% 29.70 in 10.0 mi Calm Calm - N/A   Overcast
6:55 PM 53.6 °F 41.0 °F 62% 29.71 in 10.0 mi Calm Calm - N/A   Overcast
7:15 PM 51.8 °F 41.0 °F 67% 29.71 in 10.0 mi Calm Calm - N/A   Overcast
7:35 PM 50.0 °F 41.0 °F 71% 29.71 in 10.0 mi Calm Calm - N/A   Overcast
7:55 PM 50.0 °F 41.0 °F 71% 29.71 in 10.0 mi Calm Calm - N/A   Mostly Cloudy
8:15 PM 48.2 °F 41.0 °F 76% 29.72 in 10.0 mi Calm Calm - N/A   Partly Cloudy
8:35 PM 46.4 °F 39.2 °F 76% 29.73 in 10.0 mi Calm Calm - N/A   Clear
8:55 PM 46.4 °F 39.2 °F 76% 29.73 in 10.0 mi Calm Calm - N/A   Clear
9:15 PM 46.4 °F 39.2 °F 76% 29.74 in 10.0 mi Calm Calm - N/A   Clear
9:55 PM 44.6 °F 39.2 °F 81% 29.75 in 10.0 mi Calm Calm - N/A   Clear
10:15 PM 42.8 °F 39.2 °F 87% 29.75 in 10.0 mi Calm Calm - N/A   Clear
10:35 PM 42.8 °F 39.2 °F 87% 29.75 in 10.0 mi Calm Calm - N/A   Clear
10:55 PM 41.0 °F 37.4 °F 87% 29.76 in 10.0 mi Calm Calm - N/A   Clear
11:15 PM 41.0 °F 37.4 °F 87% 29.76 in 10.0 mi Calm Calm - N/A   Clear
11:35 PM 41.0 °F 37.4 °F 87% 29.76 in 10.0 mi Calm Calm - N/A   Clear
11:55 PM 41.0 °F 37.4 °F 87% 29.76 in 10.0 mi Calm Calm - N/A   Clear